Hourly Data Report for May 01, 2019

MIRAMICHI RCS
NEW BRUNSWICK
Current Station Operator: ECCC - MSC

47°00'34.000" N
65°27'54.000" W
33.00 m
8100989
71744
ACQ

Download Data

Hourly Data (May 2019)
Hourly Data Report for May 1, 2019
TIME
LST
Temp Definition
°C
Dew Point Definition
°C
Rel Hum Definition
%
Precip. Amount Definition
mm

Wind Dir Definition
10's deg

Wind Spd Definition
km/h
Visibility Definition
km
Stn Press Definition
kPa
Hmdx Definition


Wind Chill Definition


Weather Definition


00:00 2.3 -11.2 36 0.0 31 11   101.65     LegendNANA
01:00 1.7 -10.3 40 0.0 32 14   101.69     LegendNANA
02:00 1.1 -9.8 44 0.0 30 16   101.78     LegendNANA
03:00 0.6 -9.8 45 0.0 30 17   101.84     LegendNANA
04:00 0.1 -9.5 48 0.0 30 20   101.91     LegendNANA
05:00 -0.2 -9.5 49 0.0 30 19   101.97   -5 LegendNANA
06:00 -0.1 -9.3 50 0.0 31 13   101.99   -4 LegendNANA
07:00 0.6 -9.6 46 0.0 31 24   102.04     LegendNANA
08:00 1.9 -9.2 44 0.0 30 22   102.09     LegendNANA
09:00 3.6 -8.3 41 0.0 30 19   102.08     LegendNANA
10:00 5.2 -8.1 37 0.0 30 25   102.08     LegendNANA
11:00 7.1 -7.9 33 0.0 31 22   101.98     LegendNANA
12:00 8.8 -7.2 32 0.0 29 27   101.95     LegendNANA
13:00 10.3 -6.0 31 0.0 29 27   101.91     LegendNANA
14:00 10.1 -7.0 29 0.0 31 24   101.89     LegendNANA
15:00 10.4 -7.1 29 0.0 30 24   101.87     LegendNANA
16:00 10.8 -6.9 28 0.0 31 16   101.87     LegendNANA
17:00 10.6 -7.9 27 0.0 31 18   101.88     LegendNANA
18:00 10.1 -7.1 29 0.0 30 14   101.90     LegendNANA
19:00 8.0 -8.4 30 0.0 31 13   101.91     LegendNANA
20:00 6.7 -8.9 32 0.0 32 13   101.97     LegendNANA
21:00 5.7 -8.4 36 0.0 31 12   101.98     LegendNANA
22:00 4.5 -7.9 40 0.0 33 6   101.93     LegendNANA
23:00 3.6 -8.1 42 0.0 33 10   101.88     LegendNANA

Notes on Data Quality.

Legend

  • E = Estimated
  • M = Missing
  • NA = Not Available*
  • [empty] = Indicates an unobserved value
Date modified: